Location: Antin
(43.3330°N, 0.2804°E)
Time: 23:05:51
(UTC+00:00)

SL-8 R/B - Pass Details

Date: 16 October 2021
Orbit: 656 x 667 km, 48.4° (Epoch: 03 December)

Event Time Altitude Azimuth Distance (km) Brightness Sun altitude
Rises 18:45:41 0° 223° (SW) 2,972 7.6 -17.4°
Reaches altitude 10° 18:48:05 10° 218° (SW) 2,065 6.7 -17.9°
Maximum altitude 18:52:38 47° 145° (SE) 877 4.0 -18.7°
Enters shadow 18:53:43 39° 107° (ESE) 982 4.1 -18.9°
